Conroe, TX

11:02 AM CDT on June 24, 2018 (GMT -0500)
Montgomery County

Weather History for KCXO - June, 2018

Change the Weather History Date:

Thursday, June 14, 2018

  Actual Average Record
Temperature  
Mean Temperature 80 °F -  
Max Temperature 93 °F 87 °F 102 °F (1998)
Min Temperature 70 °F 68 °F 63 °F (2006)
Cooling Degree Days 16    
Growing Degree Days 30 (Base 50)    
Moisture  
Dew Point 72 °F    
Average Humidity 77    
Maximum Humidity 100    
Minimum Humidity 52    
Precipitation  
Precipitation 0.00 in - - ()
Sea Level Pressure  
Sea Level Pressure 30.00 in    
Wind  
Wind Speed 4 mph (SSE)    
Max Wind Speed 16 mph    
Max Gust Speed -    
Visibility 10 miles    
Events Rain    
Averages and records for this station are not official NWS values.
T = Trace of Precipitation, MM = Missing Value Source: NWS Daily Summary

Daily Weather History Graph

Daily Weather History Graph

Search for Another Location

Airport or City:

Astronomy

Jun. 14, 2018 Rise Set
Actual Time 6:19 AM CDT 8:24 PM CDT
Civil Twilight 5:51 AM CDT 8:52 PM CDT
Nautical Twilight 5:18 AM CDT 9:25 PM CDT
Astronomical Twilight 4:42 AM CDT 10:01 PM CDT
Moon 7:13 AM CDT (6/14) 9:29 PM CDT (6/14)
Length of Visible Light 15h 00m
Length of Day
14h 05m
New Moon, 1% of the Moon is Illuminated
Jun 14
New Moon
Jun 20
First Quarter
Jun 27
Full
Jul 6
Last Quarter
Jul 12
New

Hourly Weather History & Observations

Time (CDT) Temp. Heat Index Dew Point Humidity Pressure Visibility Wind Dir Wind Speed Gust Speed Precip Events Conditions
12:53 AM 75.9 °F - 75.0 °F 97% 30.02 in 10.0 mi SSE 5.8 mph - N/A   Clear
1:53 AM 78.1 °F - 75.0 °F 90% 30.01 in 10.0 mi SSE 4.6 mph - N/A   Clear
2:53 AM 73.9 °F - 73.9 °F 100% 30.00 in 10.0 mi Calm Calm - N/A   Clear
3:53 AM 72.0 °F - 72.0 °F 100% 30.01 in 10.0 mi Calm Calm - N/A   Clear
4:53 AM 71.1 °F - 71.1 °F 100% 30.01 in 10.0 mi Calm Calm - N/A   Clear
5:53 AM 70.0 °F - 70.0 °F 100% 30.01 in 9.0 mi Calm Calm - N/A   Clear
6:53 AM 71.1 °F - 71.1 °F 100% 30.01 in 10.0 mi Calm Calm - N/A   Clear
7:53 AM 78.1 °F - 75.9 °F 93% 30.03 in 10.0 mi Calm Calm - N/A   Partly Cloudy
8:53 AM 82.9 °F 91.8 °F 77.0 °F 82% 30.04 in 10.0 mi Variable 3.5 mph - N/A   Partly Cloudy
9:53 AM 86.0 °F 93.8 °F 73.9 °F 67% 30.06 in 10.0 mi South 5.8 mph - N/A   Clear
10:02 AM 86.0 °F 93.8 °F 73.9 °F 67% 30.07 in 10.0 mi SW 6.9 mph - N/A   Mostly Cloudy
10:53 AM 88.0 °F 94.7 °F 72.0 °F 59% 30.05 in 10.0 mi Calm Calm - N/A   Partly Cloudy
11:53 AM 90.0 °F 96.4 °F 71.1 °F 54% 30.04 in 10.0 mi Variable 3.5 mph - N/A   Partly Cloudy
12:53 PM 90.0 °F 95.4 °F 70.0 °F 52% 30.02 in 10.0 mi East 5.8 mph - N/A   Overcast
1:53 PM 89.1 °F 96.0 °F 72.0 °F 57% 30.00 in 10.0 mi Variable 3.5 mph - 0.00 in Rain Light Rain
2:53 PM 91.0 °F 97.6 °F 71.1 °F 52% 29.99 in 10.0 mi SSE 10.4 mph - 0.00 in   Clear
3:53 PM 89.1 °F 96.0 °F 72.0 °F 57% 29.99 in 10.0 mi SSE 16.1 mph - N/A   Clear
4:53 PM 88.0 °F 93.8 °F 71.1 °F 57% 29.96 in 10.0 mi South 12.7 mph - N/A   Clear
5:53 PM 86.0 °F 90.1 °F 69.1 °F 57% 29.95 in 10.0 mi South 10.4 mph - N/A   Clear
6:53 PM 84.9 °F 89.4 °F 70.0 °F 61% 29.94 in 10.0 mi South 10.4 mph - N/A   Clear
7:53 PM 82.0 °F 86.3 °F 71.1 °F 69% 29.94 in 10.0 mi SSE 3.5 mph - N/A   Clear
8:53 PM 79.0 °F - 72.0 °F 79% 29.95 in 10.0 mi SE 3.5 mph - N/A   Clear
9:53 PM 75.0 °F - 72.0 °F 90% 29.96 in 10.0 mi Calm Calm - N/A   Clear
10:53 PM 75.9 °F - 72.0 °F 87% 29.98 in 10.0 mi Calm Calm - N/A   Clear
11:53 PM 75.9 °F - 73.0 °F 91% 29.98 in 10.0 mi Calm Calm - N/A   Clear